Location: McFarlands Corners
(41.4117°N, 81.3382°W)
Time: 00:57:03
(UTC+00:00)

Tiros 1 - Pass Details

Date: 17 February 2026
Orbit: 618 x 649 km, 48.4° (Epoch: 10 March)

Event Time Altitude Azimuth Distance (km) Brightness Sun altitude
Rises 16:12:21 0° 274° (W) 2,902 10.3 33.1°
Reaches altitude 10° 16:14:49 10° 283° (WNW) 1,992 9.4 33.3°
Maximum altitude 16:19:03 36° 351° (N) 979 7.9 33.6°
Drops below altitude 10° 16:23:17 10° 59° (ENE) 1,983 9.7 34.0°
Sets 16:25:44 0° 68° (ENE) 2,888 10.5 34.1°
